Location: Recife
(8.0585°S, 34.8848°W)
Time: 12:12:54
(UTC-03:00)

Vanguard 1 Rocket - Pass Details

Date: 14 April 2026
Orbit: 655 x 4212 km, 34.3° (Epoch: 12 May)

Event Time Altitude Azimuth Distance (km) Brightness Sun altitude
Rises 22:49:58 0° 293° (WNW) 8,391 12.4 -82.5°
Reaches altitude 10° 23:04:21 10° 321° (NW) 7,293 11.9 -85.9°
Maximum altitude 23:11:12 12° 338° (NNW) 6,894 11.8 -87.3°
Drops below altitude 10° 23:17:33 10° 354° (N) 6,659 11.7 -88.2°
Sets 23:28:39 0° 25° (NNE) 6,733 11.9 -87.2°
